Time,TemperatureF,DewpointF,PressureIn,WindDirection,WindDirectionDegrees,WindSpeedMPH,WindSpeedGustMPH,Humidity,HourlyPrecipIn,Conditions,Clouds,dailyrainin,SoftwareType,DateUTC
2013-04-02 00:00:00,53.5,40.8,29.99,North,3,0.0,0.0,62,0.00,,,0.00,WeatherCatV1.11B39,2013-04-02 04:00:00,
2013-04-02 00:01:00,53.5,40.4,29.99,North,3,0.0,0.0,61,0.00,,,0.00,WeatherCatV1.11B39,2013-04-02 04:01:00,
2013-04-02 00:06:00,53.3,40.2,29.99,North,359,0.0,0.0,61,0.00,,,0.00,WeatherCatV1.11B39,2013-04-02 04:06:00,
2013-04-02 00:11:00,53.3,39.3,29.99,North,357,0.0,0.0,59,0.00,,,0.00,WeatherCatV1.11B39,2013-04-02 04:11:00,
2013-04-02 00:16:00,53.5,40.0,29.99,North,3,0.0,0.0,60,0.00,,,0.00,WeatherCatV1.11B39,2013-04-02 04:16:00,
2013-04-02 00:21:00,53.5,40.0,29.99,North,3,0.0,0.0,60,0.00,,,0.00,WeatherCatV1.11B39,2013-04-02 04:21:00,
2013-04-02 00:26:00,53.5,40.0,29.99,North,3,0.0,0.0,60,0.00,,,0.00,WeatherCatV1.11B39,2013-04-02 04:26:00,
2013-04-02 00:31:00,53.5,40.0,29.99,North,3,0.0,0.0,60,0.00,,,0.00,WeatherCatV1.11B39,2013-04-02 04:31:00,
2013-04-02 00:36:00,53.3,39.3,29.99,North,357,0.0,0.0,59,0.00,,,0.00,WeatherCatV1.11B39,2013-04-02 04:36:00,
2013-04-02 00:41:00,53.2,38.8,29.99,North,359,0.0,0.0,58,0.00,,,0.00,WeatherCatV1.11B39,2013-04-02 04:41:00,
2013-04-02 00:46:00,53.1,38.7,30.00,North,357,0.0,0.0,58,0.00,,,0.00,WeatherCatV1.11B39,2013-04-02 04:46:00,
2013-04-02 00:51:00,52.9,38.1,30.00,North,359,0.0,0.0,57,0.00,,,0.00,WeatherCatV1.11B39,2013-04-02 04:51:00,
2013-04-02 00:56:00,52.9,38.1,30.00,North,359,0.0,0.0,57,0.00,,,0.00,WeatherCatV1.11B39,2013-04-02 04:56:00,
2013-04-02 01:01:00,52.6,38.2,30.00,North,359,0.0,0.0,58,0.00,,,0.00,WeatherCatV1.11B39,2013-04-02 05:01:00,
2013-04-02 01:06:00,52.3,38.0,30.00,North,359,0.0,0.0,58,0.00,,,0.00,WeatherCatV1.11B39,2013-04-02 05:06:00,
2013-04-02 01:11:00,52.2,37.9,30.00,North,359,0.0,0.0,58,0.00,,,0.00,WeatherCatV1.11B39,2013-04-02 05:11:00,
2013-04-02 01:16:00,52.0,37.7,30.00,North,359,0.0,0.0,58,0.00,,,0.00,WeatherCatV1.11B39,2013-04-02 05:16:00,
2013-04-02 01:21:00,51.9,37.6,30.00,North,357,0.0,0.0,58,0.00,,,0.00,WeatherCatV1.11B39,2013-04-02 05:21:00,
2013-04-02 01:26:00,51.9,37.6,30.00,North,359,0.0,0.0,58,0.00,,,0.00,WeatherCatV1.11B39,2013-04-02 05:26:00,
2013-04-02 01:31:00,51.9,38.0,30.00,North,359,0.0,0.0,59,0.00,,,0.00,WeatherCatV1.11B39,2013-04-02 05:31:00,
2013-04-02 01:36:00,51.9,37.6,30.00,North,359,0.0,0.0,58,0.00,,,0.00,WeatherCatV1.11B39,2013-04-02 05:36:00,
2013-04-02 01:41:00,51.9,37.6,30.00,North,357,0.0,0.0,58,0.00,,,0.00,WeatherCatV1.11B39,2013-04-02 05:41:00,
2013-04-02 01:46:00,51.9,37.6,30.00,North,359,0.0,0.0,58,0.00,,,0.00,WeatherCatV1.11B39,2013-04-02 05:46:00,
2013-04-02 01:51:00,50.7,36.9,30.00,North,359,0.0,0.0,59,0.00,,,0.00,WeatherCatV1.11B39,2013-04-02 05:51:00,
2013-04-02 01:56:00,50.7,36.9,30.00,North,359,0.0,0.0,59,0.00,,,0.00,WeatherCatV1.11B39,2013-04-02 05:56:00,
2013-04-02 02:01:00,50.7,37.3,29.99,North,359,0.0,0.0,60,0.00,,,0.00,WeatherCatV1.11B39,2013-04-02 06:01:00,
2013-04-02 02:06:00,50.2,36.9,29.99,North,359,0.0,0.0,60,0.00,,,0.00,WeatherCatV1.11B39,2013-04-02 06:06:00,
2013-04-02 02:11:00,50.2,36.9,29.99,North,359,0.0,0.0,60,0.00,,,0.00,WeatherCatV1.11B39,2013-04-02 06:11:00,
2013-04-02 02:16:00,50.2,36.9,29.99,North,359,0.0,0.0,60,0.00,,,0.00,WeatherCatV1.11B39,2013-04-02 06:16:00,
2013-04-02 02:21:00,50.2,36.9,29.99,North,359,0.0,0.0,60,0.00,,,0.00,WeatherCatV1.11B39,2013-04-02 06:21:00,
2013-04-02 02:26:00,50.2,36.9,29.99,North,359,0.0,0.0,60,0.00,,,0.00,WeatherCatV1.11B39,2013-04-02 06:26:00,
2013-04-02 02:31:00,50.2,36.9,29.99,North,359,0.0,0.0,60,0.00,,,0.00,WeatherCatV1.11B39,2013-04-02 06:31:00,
2013-04-02 02:36:00,49.9,36.6,29.99,North,359,0.0,0.0,60,0.00,,,0.00,WeatherCatV1.11B39,2013-04-02 06:36:00,
2013-04-02 02:41:00,49.8,36.5,29.99,North,359,0.0,0.0,60,0.00,,,0.00,WeatherCatV1.11B39,2013-04-02 06:41:00,
2013-04-02 02:46:00,49.8,36.5,30.00,North,359,0.0,0.0,60,0.00,,,0.00,WeatherCatV1.11B39,2013-04-02 06:46:00,
2013-04-02 02:51:00,49.8,36.5,30.00,North,359,0.0,0.0,60,0.00,,,0.00,WeatherCatV1.11B39,2013-04-02 06:51:00,
2013-04-02 02:56:00,49.8,36.5,30.00,North,359,0.0,0.0,60,0.00,,,0.00,WeatherCatV1.11B39,2013-04-02 06:56:00,
2013-04-02 03:01:00,49.6,36.3,30.00,North,359,0.0,0.0,60,0.00,,,0.00,WeatherCatV1.11B39,2013-04-02 07:01:00,
2013-04-02 03:06:00,49.6,36.3,30.00,North,359,0.0,0.0,60,0.00,,,0.00,WeatherCatV1.11B39,2013-04-02 07:06:00,
2013-04-02 03:11:00,49.2,35.9,30.00,North,359,0.0,0.0,60,0.00,,,0.00,WeatherCatV1.11B39,2013-04-02 07:11:00,
2013-04-02 03:16:00,49.2,35.9,30.00,North,359,0.0,0.0,60,0.00,,,0.00,WeatherCatV1.11B39,2013-04-02 07:16:00,
2013-04-02 03:21:00,49.2,35.9,30.00,North,359,0.0,0.0,60,0.00,,,0.00,WeatherCatV1.11B39,2013-04-02 07:21:00,
2013-04-02 03:26:00,49.2,35.9,30.00,North,359,0.0,0.0,60,0.00,,,0.00,WeatherCatV1.11B39,2013-04-02 07:26:00,
2013-04-02 03:31:00,49.2,35.9,30.00,North,-999,-999.0,0.0,60,0.00,,,0.00,WeatherCatV1.11B39,2013-04-02 07:31:00,
2013-04-02 03:36:00,49.2,35.9,30.00,North,-999,-999.0,0.0,60,0.00,,,0.00,WeatherCatV1.11B39,2013-04-02 07:36:00,
2013-04-02 03:41:00,49.2,35.9,30.00,North,359,0.0,0.0,60,0.00,,,0.00,WeatherCatV1.11B39,2013-04-02 07:41:00,
2013-04-02 03:46:00,49.2,35.9,30.00,North,359,0.0,0.0,60,0.00,,,0.00,WeatherCatV1.11B39,2013-04-02 07:46:00,
2013-04-02 03:51:00,49.2,35.9,30.00,North,-999,-999.0,0.0,60,0.00,,,0.00,WeatherCatV1.11B39,2013-04-02 07:51:00,
2013-04-02 03:56:00,49.2,35.9,30.00,North,-999,-999.0,0.0,60,0.00,,,0.00,WeatherCatV1.11B39,2013-04-02 07:56:00,
2013-04-02 04:01:00,49.2,35.9,30.01,North,-999,-999.0,0.0,60,0.00,,,0.00,WeatherCatV1.11B39,2013-04-02 08:01:00,
2013-04-02 04:06:00,49.2,35.9,30.01,North,-999,-999.0,0.0,60,0.00,,,0.00,WeatherCatV1.11B39,2013-04-02 08:06:00,
2013-04-02 04:11:00,49.2,35.9,30.01,North,-999,-999.0,0.0,60,0.00,,,0.00,WeatherCatV1.11B39,2013-04-02 08:11:00,
2013-04-02 04:16:00,49.2,35.9,30.01,North,359,0.0,0.0,60,0.00,,,0.00,WeatherCatV1.11B39,2013-04-02 08:16:00,
2013-04-02 04:21:00,49.2,35.9,30.01,North,359,0.0,0.0,60,0.00,,,0.00,WeatherCatV1.11B39,2013-04-02 08:21:00,
2013-04-02 04:26:00,49.2,35.9,30.01,North,359,0.0,0.0,60,0.00,,,0.00,WeatherCatV1.11B39,2013-04-02 08:26:00,
2013-04-02 04:31:00,47.0,33.8,30.02,North,359,0.0,0.0,60,0.00,,,0.00,WeatherCatV1.11B39,2013-04-02 08:31:00,
2013-04-02 04:36:00,47.0,33.8,30.02,North,359,0.0,0.0,60,0.00,,,0.00,WeatherCatV1.11B39,2013-04-02 08:36:00,
2013-04-02 04:41:00,47.0,33.8,30.02,North,359,0.0,0.0,60,0.00,,,0.00,WeatherCatV1.11B39,2013-04-02 08:41:00,
2013-04-02 04:46:00,46.7,33.6,30.03,North,359,0.0,0.0,60,0.00,,,0.00,WeatherCatV1.11B39,2013-04-02 08:46:00,
2013-04-02 04:51:00,46.5,33.4,30.03,North,359,0.0,0.0,60,0.00,,,0.00,WeatherCatV1.11B39,2013-04-02 08:51:00,
2013-04-02 04:56:00,46.4,33.3,30.03,North,359,0.0,0.0,60,0.00,,,0.00,WeatherCatV1.11B39,2013-04-02 08:56:00,
2013-04-02 05:01:00,46.4,33.3,30.03,North,359,0.0,0.0,60,0.00,,,0.00,WeatherCatV1.11B39,2013-04-02 09:01:00,
2013-04-02 05:06:00,46.4,33.3,30.03,North,359,0.0,0.0,60,0.00,,,0.00,WeatherCatV1.11B39,2013-04-02 09:06:00,
2013-04-02 05:11:00,46.5,33.4,30.03,North,359,0.0,0.0,60,0.00,,,0.00,WeatherCatV1.11B39,2013-04-02 09:11:00,
2013-04-02 05:16:00,46.5,33.4,30.03,North,359,0.0,0.0,60,0.00,,,0.00,WeatherCatV1.11B39,2013-04-02 09:16:00,
2013-04-02 05:21:00,46.5,33.4,30.03,North,359,0.0,0.0,60,0.00,,,0.00,WeatherCatV1.11B39,2013-04-02 09:21:00,
2013-04-02 05:26:00,46.5,35.8,30.03,North,359,0.0,0.0,66,0.00,,,0.00,WeatherCatV1.11B39,2013-04-02 09:26:00,
2013-04-02 05:31:00,46.5,35.8,30.04,North,359,0.0,0.0,66,0.00,,,0.00,WeatherCatV1.11B39,2013-04-02 09:31:00,
2013-04-02 05:36:00,46.5,35.8,30.04,North,359,0.0,0.0,66,0.00,,,0.00,WeatherCatV1.11B39,2013-04-02 09:36:00,
2013-04-02 05:41:00,46.5,35.8,30.04,North,359,0.0,0.0,66,0.00,,,0.00,WeatherCatV1.11B39,2013-04-02 09:41:00,
2013-04-02 05:46:00,46.5,35.8,30.05,North,359,0.0,0.0,66,0.00,,,0.00,WeatherCatV1.11B39,2013-04-02 09:46:00,
2013-04-02 05:51:00,46.5,35.8,30.05,North,359,0.0,0.0,66,0.00,,,0.00,WeatherCatV1.11B39,2013-04-02 09:51:00,
2013-04-02 05:56:00,46.5,35.8,30.05,North,359,0.0,0.0,66,0.00,,,0.00,WeatherCatV1.11B39,2013-04-02 09:56:00,
2013-04-02 06:01:00,46.5,37.6,30.05,North,359,0.0,0.0,71,0.00,,,0.00,WeatherCatV1.11B39,2013-04-02 10:01:00,
2013-04-02 06:06:00,46.5,36.9,30.05,North,359,0.0,0.0,69,0.00,,,0.00,WeatherCatV1.11B39,2013-04-02 10:06:00,
2013-04-02 06:11:00,46.5,36.9,30.05,North,359,0.0,0.0,69,0.00,,,0.00,WeatherCatV1.11B39,2013-04-02 10:11:00,
2013-04-02 06:16:00,45.4,35.8,30.06,North,359,0.0,0.0,69,0.00,,,0.00,WeatherCatV1.11B39,2013-04-02 10:16:00,
2013-04-02 06:21:00,45.5,35.9,30.06,North,359,0.0,0.0,69,0.00,,,0.00,WeatherCatV1.11B39,2013-04-02 10:21:00,
2013-04-02 06:26:00,45.5,35.9,30.06,North,359,0.0,0.0,69,0.00,,,0.00,WeatherCatV1.11B39,2013-04-02 10:26:00,
2013-04-02 06:31:00,45.7,36.1,30.06,North,4,0.0,0.0,69,0.00,,,0.00,WeatherCatV1.11B39,2013-04-02 10:31:00,
2013-04-02 06:36:00,45.7,36.1,30.06,North,4,0.0,0.0,69,0.00,,,0.00,WeatherCatV1.11B39,2013-04-02 10:36:00,
2013-04-02 06:41:00,45.8,36.2,30.06,NNW,329,0.0,0.0,69,0.00,,,0.00,WeatherCatV1.11B39,2013-04-02 10:41:00,
2013-04-02 06:46:00,45.8,36.2,30.08,NNW,329,0.0,0.0,69,0.00,,,0.00,WeatherCatV1.11B39,2013-04-02 10:46:00,
2013-04-02 06:51:00,45.8,36.2,30.08,NNW,329,0.0,0.0,69,0.00,,,0.00,WeatherCatV1.11B39,2013-04-02 10:51:00,
2013-04-02 06:56:00,45.8,36.2,30.08,North,350,0.0,2.0,69,0.00,,,0.00,WeatherCatV1.11B39,2013-04-02 10:56:00,
2013-04-02 07:01:00,45.8,33.5,30.08,North,359,3.0,3.0,62,0.00,,,0.00,WeatherCatV1.11B39,2013-04-02 11:01:00,
2013-04-02 07:06:00,46.1,32.6,30.08,NNW,335,0.0,0.0,59,0.00,,,0.00,WeatherCatV1.11B39,2013-04-02 11:06:00,
2013-04-02 07:11:00,46.1,32.6,30.08,NNW,335,0.0,0.0,59,0.00,,,0.00,WeatherCatV1.11B39,2013-04-02 11:11:00,
2013-04-02 07:16:00,46.1,33.0,30.08,NNW,333,0.0,0.0,60,0.00,,,0.00,WeatherCatV1.11B39,2013-04-02 11:16:00,
2013-04-02 07:21:00,46.1,33.0,30.08,North,7,3.0,3.0,60,0.00,,,0.00,WeatherCatV1.11B39,2013-04-02 11:21:00,
2013-04-02 07:26:00,46.1,32.6,30.08,North,359,0.0,0.0,59,0.00,,,0.00,WeatherCatV1.11B39,2013-04-02 11:26:00,
2013-04-02 07:31:00,46.1,32.2,30.09,North,4,0.0,0.0,58,0.00,,,0.00,WeatherCatV1.11B39,2013-04-02 11:31:00,
2013-04-02 07:36:00,46.2,31.4,30.09,North,0,0.0,6.0,56,0.00,,,0.00,WeatherCatV1.11B39,2013-04-02 11:36:00,
2013-04-02 07:41:00,46.5,32.1,30.09,North,0,5.0,7.0,57,0.00,,,0.00,WeatherCatV1.11B39,2013-04-02 11:41:00,
2013-04-02 07:46:00,47.0,30.8,30.09,North,0,3.0,7.0,53,0.00,,,0.00,WeatherCatV1.11B39,2013-04-02 11:46:00,
2013-04-02 07:51:00,47.1,29.9,30.09,NNE,14,5.0,8.0,51,0.00,,,0.00,WeatherCatV1.11B39,2013-04-02 11:51:00,
2013-04-02 07:56:00,47.3,30.1,30.09,NNW,343,8.0,8.0,51,0.00,,,0.00,WeatherCatV1.11B39,2013-04-02 11:56:00,
2013-04-02 08:01:00,47.4,29.2,30.10,North,352,3.0,6.0,49,0.00,,,0.00,WeatherCatV1.11B39,2013-04-02 12:01:00,
2013-04-02 08:06:00,47.6,27.9,30.10,NNW,340,1.0,12.0,46,0.00,,,0.00,WeatherCatV1.11B39,2013-04-02 12:06:00,
2013-04-02 08:11:00,47.9,28.1,30.10,NNW,336,0.0,11.0,46,0.00,,,0.00,WeatherCatV1.11B39,2013-04-02 12:11:00,
2013-04-02 08:16:00,48.2,28.4,30.12,North,8,5.0,6.0,46,0.00,,,0.00,WeatherCatV1.11B39,2013-04-02 12:16:00,
2013-04-02 08:21:00,48.3,26.3,30.12,North,0,7.0,10.0,42,0.00,,,0.00,WeatherCatV1.11B39,2013-04-02 12:21:00,
2013-04-02 08:26:00,48.5,27.6,30.12,NNW,333,3.0,3.0,44,0.00,,,0.00,WeatherCatV1.11B39,2013-04-02 12:26:00,
2013-04-02 08:31:00,48.8,27.9,30.13,North,359,8.0,8.0,44,0.00,,,0.00,WeatherCatV1.11B39,2013-04-02 12:31:00,
2013-04-02 08:36:00,48.9,27.4,30.13,NNW,339,0.0,8.0,43,0.00,,,0.00,WeatherCatV1.11B39,2013-04-02 12:36:00,
2013-04-02 08:41:00,49.1,26.4,30.13,North,350,6.0,10.0,41,0.00,,,0.00,WeatherCatV1.11B39,2013-04-02 12:41:00,
2013-04-02 08:46:00,49.1,27.0,30.12,North,0,1.0,6.0,42,0.00,,,0.00,WeatherCatV1.11B39,2013-04-02 12:46:00,
2013-04-02 08:51:00,49.2,26.5,30.12,NNW,336,7.0,7.0,41,0.00,,,0.00,WeatherCatV1.11B39,2013-04-02 12:51:00,
2013-04-02 08:56:00,49.4,25.5,30.12,NW,311,5.0,7.0,39,0.00,,,0.00,WeatherCatV1.11B39,2013-04-02 12:56:00,
2013-04-02 09:01:00,49.4,24.2,30.13,NNW,347,2.0,5.0,37,0.00,,,0.00,WeatherCatV1.11B39,2013-04-02 13:01:00,
2013-04-02 09:06:00,49.6,25.0,30.13,NNE,13,0.0,6.0,38,0.00,,,0.00,WeatherCatV1.11B39,2013-04-02 13:06:00,
2013-04-02 09:11:00,49.8,25.2,30.13,North,356,2.0,6.0,38,0.00,,,0.00,WeatherCatV1.11B39,2013-04-02 13:11:00,
2013-04-02 09:16:00,50.1,23.5,30.13,North,354,7.0,7.0,35,0.00,,,0.00,WeatherCatV1.11B39,2013-04-02 13:16:00,
2013-04-02 09:22:00,50.1,22.8,30.13,North,0,0.0,0.0,34,0.00,,,0.00,WeatherCatV1.11B39,2013-04-02 13:22:00,
2013-04-02 09:26:00,50.1,21.4,30.13,NNW,346,11.0,11.0,32,0.00,,,0.00,WeatherCatV1.11B39,2013-04-02 13:26:00,
2013-04-02 09:32:00,50.1,19.9,30.13,North,353,5.0,8.0,30,0.00,,,0.00,WeatherCatV1.11B39,2013-04-02 13:32:00,
2013-04-02 09:37:00,50.1,19.9,30.13,North,10,12.0,12.0,30,0.00,,,0.00,WeatherCatV1.11B39,2013-04-02 13:37:00,
2013-04-02 09:42:00,50.1,19.9,30.13,North,4,6.0,6.0,30,0.00,,,0.00,WeatherCatV1.11B39,2013-04-02 13:42:00,
2013-04-02 09:47:00,50.1,20.7,30.13,NW,311,0.0,2.0,31,0.00,,,0.00,WeatherCatV1.11B39,2013-04-02 13:47:00,
2013-04-02 09:52:00,50.1,20.7,30.13,North,359,5.0,5.0,31,0.00,,,0.00,WeatherCatV1.11B39,2013-04-02 13:52:00,
2013-04-02 09:57:00,50.1,20.7,30.13,North,0,1.0,1.0,31,0.00,,,0.00,WeatherCatV1.11B39,2013-04-02 13:57:00,
2013-04-02 10:02:00,50.1,18.3,30.13,WNW,302,0.0,0.0,28,0.00,,,0.00,WeatherCatV1.11B39,2013-04-02 14:02:00,
2013-04-02 10:07:00,50.1,18.3,30.13,NNW,332,1.0,3.0,28,0.00,,,0.00,WeatherCatV1.11B39,2013-04-02 14:07:00,
2013-04-02 10:12:00,50.1,18.3,30.13,North,359,0.0,0.0,28,0.00,,,0.00,WeatherCatV1.11B39,2013-04-02 14:12:00,
2013-04-02 10:17:00,50.1,20.7,30.14,NNE,13,5.0,6.0,31,0.00,,,0.00,WeatherCatV1.11B39,2013-04-02 14:17:00,
2013-04-02 10:22:00,50.1,20.7,30.14,NNE,32,2.0,3.0,31,0.00,,,0.00,WeatherCatV1.11B39,2013-04-02 14:22:00,
2013-04-02 10:27:00,50.1,20.7,30.14,NNE,18,1.0,1.0,31,0.00,,,0.00,WeatherCatV1.11B39,2013-04-02 14:27:00,
2013-04-02 10:32:00,50.1,20.7,30.15,NNE,18,1.0,1.0,31,0.00,,,0.00,WeatherCatV1.11B39,2013-04-02 14:32:00,
2013-04-02 10:37:00,50.1,17.4,30.15,NNE,28,0.0,3.0,27,0.00,,,0.00,WeatherCatV1.11B39,2013-04-02 14:37:00,
2013-04-02 10:42:00,50.1,18.3,30.15,North,0,2.0,2.0,28,0.00,,,0.00,WeatherCatV1.11B39,2013-04-02 14:42:00,
2013-04-02 10:47:00,50.1,18.3,30.15,NW,312,4.0,4.0,28,0.00,,,0.00,WeatherCatV1.11B39,2013-04-02 14:47:00,
2013-04-02 10:52:00,50.1,18.3,30.15,North,349,0.0,0.0,28,0.00,,,0.00,WeatherCatV1.11B39,2013-04-02 14:52:00,
2013-04-02 10:57:00,50.1,16.6,30.15,North,10,8.0,8.0,26,0.00,,,0.00,WeatherCatV1.11B39,2013-04-02 14:57:00,
2013-04-02 11:02:00,50.1,16.6,30.15,North,3,1.0,6.0,26,0.00,,,0.00,WeatherCatV1.11B39,2013-04-02 15:02:00,
2013-04-02 11:07:00,50.1,16.6,30.15,North,0,2.0,5.0,26,0.00,,,0.00,WeatherCatV1.11B39,2013-04-02 15:07:00,
2013-04-02 11:11:00,50.1,16.6,30.15,NW,312,3.0,6.0,26,0.00,,,0.00,WeatherCatV1.11B39,2013-04-02 15:11:00,
2013-04-02 11:16:00,50.1,16.6,30.14,NW,325,3.0,3.0,26,0.00,,,0.00,WeatherCatV1.11B39,2013-04-02 15:16:00,
2013-04-02 11:21:00,50.1,16.6,30.14,NNE,23,7.0,7.0,26,0.00,,,0.00,WeatherCatV1.11B39,2013-04-02 15:21:00,
2013-04-02 11:26:00,50.1,16.6,30.14,NE,35,1.0,1.0,26,0.00,,,0.00,WeatherCatV1.11B39,2013-04-02 15:26:00,
2013-04-02 11:31:00,50.1,16.6,30.14,North,353,4.0,4.0,26,0.00,,,0.00,WeatherCatV1.11B39,2013-04-02 15:31:00,
2013-04-02 11:36:00,50.1,16.6,30.14,North,353,4.0,4.0,26,0.00,,,0.00,WeatherCatV1.11B39,2013-04-02 15:36:00,
2013-04-02 11:42:00,50.1,16.6,30.14,West,272,0.0,0.0,26,0.00,,,0.00,WeatherCatV1.11B39,2013-04-02 15:42:00,
2013-04-02 11:47:00,50.1,16.6,30.14,North,10,6.0,6.0,26,0.00,,,0.00,WeatherCatV1.11B39,2013-04-02 15:47:00,
2013-04-02 11:52:00,50.1,16.6,30.14,NNW,336,6.0,6.0,26,0.00,,,0.00,WeatherCatV1.11B39,2013-04-02 15:52:00,
2013-04-02 11:57:00,50.1,13.8,30.14,North,8,5.0,5.0,23,0.00,,,0.00,WeatherCatV1.11B39,2013-04-02 15:57:00,
2013-04-02 12:02:00,50.1,13.8,30.14,North,8,5.0,5.0,23,0.00,,,0.00,WeatherCatV1.11B39,2013-04-02 16:02:00,
2013-04-02 12:07:00,50.1,13.8,30.14,North,7,8.0,8.0,23,0.00,,,0.00,WeatherCatV1.11B39,2013-04-02 16:07:00,
2013-04-02 12:12:00,56.9,21.5,30.14,WSW,247,3.0,3.0,25,0.00,,,0.00,WeatherCatV1.11B39,2013-04-02 16:12:00,
2013-04-02 12:17:00,56.9,21.5,30.13,WSW,247,3.0,3.0,25,0.00,,,0.00,WeatherCatV1.11B39,2013-04-02 16:17:00,
2013-04-02 12:22:00,56.9,21.5,30.13,North,0,8.0,8.0,25,0.00,,,0.00,WeatherCatV1.11B39,2013-04-02 16:22:00,
2013-04-02 12:27:00,56.9,21.5,30.13,North,0,8.0,8.0,25,0.00,,,0.00,WeatherCatV1.11B39,2013-04-02 16:27:00,
2013-04-02 12:32:00,56.9,21.5,30.12,North,0,12.0,12.0,25,0.00,,,0.00,WeatherCatV1.11B39,2013-04-02 16:32:00,
2013-04-02 12:37:00,56.9,21.5,30.12,North,352,2.0,11.0,25,0.00,,,0.00,WeatherCatV1.11B39,2013-04-02 16:37:00,
2013-04-02 12:42:00,56.9,21.5,30.12,North,357,6.0,6.0,25,0.00,,,0.00,WeatherCatV1.11B39,2013-04-02 16:42:00,
2013-04-02 12:47:00,56.9,18.5,30.12,NW,304,1.0,6.0,22,0.00,,,0.00,WeatherCatV1.11B39,2013-04-02 16:47:00,
2013-04-02 12:52:00,56.9,18.5,30.12,NW,304,1.0,1.0,22,0.00,,,0.00,WeatherCatV1.11B39,2013-04-02 16:52:00,
2013-04-02 12:57:00,56.9,18.5,30.12,WSW,257,2.0,2.0,22,0.00,,,0.00,WeatherCatV1.11B39,2013-04-02 16:57:00,
2013-04-02 13:02:00,56.9,18.5,30.11,NNE,13,3.0,3.0,22,0.00,,,0.00,WeatherCatV1.11B39,2013-04-02 17:02:00,
2013-04-02 13:07:00,56.9,19.5,30.11,East,86,0.0,1.0,23,0.00,,,0.00,WeatherCatV1.11B39,2013-04-02 17:07:00,
2013-04-02 13:12:00,56.9,19.5,30.11,East,86,0.0,0.0,23,0.00,,,0.00,WeatherCatV1.11B39,2013-04-02 17:12:00,
2013-04-02 13:17:00,56.9,19.5,30.11,North,0,13.0,13.0,23,0.00,,,0.00,WeatherCatV1.11B39,2013-04-02 17:17:00,
2013-04-02 13:22:00,56.9,19.5,30.11,NW,306,0.0,0.0,23,0.00,,,0.00,WeatherCatV1.11B39,2013-04-02 17:22:00,
2013-04-02 13:27:00,56.9,19.5,30.11,NW,316,3.0,3.0,23,0.00,,,0.00,WeatherCatV1.11B39,2013-04-02 17:27:00,
2013-04-02 13:32:00,56.9,19.5,30.10,NW,316,3.0,3.0,23,0.00,,,0.00,WeatherCatV1.11B39,2013-04-02 17:32:00,
2013-04-02 13:37:00,56.9,19.5,30.10,NW,316,3.0,3.0,23,0.00,,,0.00,WeatherCatV1.11B39,2013-04-02 17:37:00,
2013-04-02 13:42:00,56.9,19.5,30.10,North,-999,-999.0,0.0,23,0.00,,,0.00,WeatherCatV1.11B39,2013-04-02 17:42:00,
2013-04-02 13:47:00,56.9,19.5,30.10,North,-999,-999.0,0.0,23,0.00,,,0.00,WeatherCatV1.11B39,2013-04-02 17:47:00,
2013-04-02 13:52:00,56.9,19.5,30.10,North,-999,-999.0,0.0,23,0.00,,,0.00,WeatherCatV1.11B39,2013-04-02 17:52:00,
2013-04-02 13:57:00,56.9,21.5,30.10,West,281,0.0,0.0,25,0.00,,,0.00,WeatherCatV1.11B39,2013-04-02 17:57:00,
2013-04-02 14:02:00,56.9,21.5,30.09,SE,138,0.0,0.0,25,0.00,,,0.00,WeatherCatV1.11B39,2013-04-02 18:02:00,
2013-04-02 14:07:00,56.9,21.5,30.09,NNE,31,0.0,0.0,25,0.00,,,0.00,WeatherCatV1.11B39,2013-04-02 18:07:00,
2013-04-02 14:12:00,62.3,26.0,30.09,SE,144,1.0,5.0,25,0.00,,,0.00,WeatherCatV1.11B39,2013-04-02 18:12:00,
2013-04-02 14:17:00,62.4,26.1,30.07,SE,136,0.0,1.0,25,0.00,,,0.00,WeatherCatV1.11B39,2013-04-02 18:17:00,
2013-04-02 14:22:00,62.4,26.1,30.07,NNW,328,0.0,1.0,25,0.00,,,0.00,WeatherCatV1.11B39,2013-04-02 18:22:00,
2013-04-02 14:27:00,62.4,26.1,30.07,South,169,1.0,1.0,25,0.00,,,0.00,WeatherCatV1.11B39,2013-04-02 18:27:00,
2013-04-02 14:32:00,62.7,26.4,30.06,NE,48,6.0,7.0,25,0.00,,,0.00,WeatherCatV1.11B39,2013-04-02 18:32:00,
2013-04-02 14:37:00,62.7,26.4,30.06,North,6,2.0,2.0,25,0.00,,,0.00,WeatherCatV1.11B39,2013-04-02 18:37:00,
2013-04-02 14:42:00,62.7,28.2,30.06,NNW,346,3.0,3.0,27,0.00,,,0.00,WeatherCatV1.11B39,2013-04-02 18:42:00,
2013-04-02 14:47:00,62.7,28.2,30.06,South,189,0.0,0.0,27,0.00,,,0.00,WeatherCatV1.11B39,2013-04-02 18:47:00,
2013-04-02 14:52:00,62.7,26.4,30.06,WSW,241,0.0,5.0,25,0.00,,,0.00,WeatherCatV1.11B39,2013-04-02 18:52:00,
2013-04-02 14:56:00,62.7,26.4,30.06,NNW,344,0.0,0.0,25,0.00,,,0.00,WeatherCatV1.11B39,2013-04-02 18:56:00,
2013-04-02 15:01:00,62.7,26.4,30.06,NNW,335,8.0,8.0,25,0.00,,,0.00,WeatherCatV1.11B39,2013-04-02 19:01:00,
2013-04-02 15:06:00,64.8,28.2,30.06,SSE,164,1.0,10.0,25,0.00,,,0.00,WeatherCatV1.11B39,2013-04-02 19:06:00,
2013-04-02 15:12:00,64.8,28.2,30.06,South,189,0.0,1.0,25,0.00,,,0.00,WeatherCatV1.11B39,2013-04-02 19:12:00,
2013-04-02 15:17:00,64.8,28.2,30.06,South,189,0.0,0.0,25,0.00,,,0.00,WeatherCatV1.11B39,2013-04-02 19:17:00,
2013-04-02 15:22:00,64.8,28.2,30.06,South,189,0.0,0.0,25,0.00,,,0.00,WeatherCatV1.11B39,2013-04-02 19:22:00,
2013-04-02 15:27:00,65.0,29.3,30.06,North,359,0.0,0.0,26,0.00,,,0.00,WeatherCatV1.11B39,2013-04-02 19:27:00,
2013-04-02 15:32:00,65.0,29.3,30.05,South,186,1.0,3.0,26,0.00,,,0.00,WeatherCatV1.11B39,2013-04-02 19:32:00,
2013-04-02 15:37:00,65.0,29.3,30.05,South,186,1.0,1.0,26,0.00,,,0.00,WeatherCatV1.11B39,2013-04-02 19:37:00,
2013-04-02 15:42:00,65.0,29.3,30.05,NNW,330,0.0,0.0,26,0.00,,,0.00,WeatherCatV1.11B39,2013-04-02 19:42:00,
2013-04-02 15:47:00,65.0,29.3,30.04,NNW,330,0.0,0.0,26,0.00,,,0.00,WeatherCatV1.11B39,2013-04-02 19:47:00,
2013-04-02 15:52:00,65.0,31.1,30.04,SW,230,0.0,2.0,28,0.00,,,0.00,WeatherCatV1.11B39,2013-04-02 19:52:00,
2013-04-02 15:57:00,65.3,31.4,30.04,NW,313,6.0,6.0,28,0.00,,,0.00,WeatherCatV1.11B39,2013-04-02 19:57:00,
2013-04-02 16:02:00,65.3,31.4,30.04,SW,220,0.0,0.0,28,0.00,,,0.00,WeatherCatV1.11B39,2013-04-02 20:02:00,
2013-04-02 16:07:00,65.3,31.4,30.04,WSW,258,4.0,5.0,28,0.00,,,0.00,WeatherCatV1.11B39,2013-04-02 20:07:00,
2013-04-02 16:12:00,65.3,31.4,30.04,WSW,258,4.0,4.0,28,0.00,,,0.00,WeatherCatV1.11B39,2013-04-02 20:12:00,
2013-04-02 16:17:00,65.3,31.4,30.04,WSW,258,4.0,4.0,28,0.00,,,0.00,WeatherCatV1.11B39,2013-04-02 20:17:00,
2013-04-02 16:22:00,65.3,31.4,30.04,SSW,210,0.0,0.0,28,0.00,,,0.00,WeatherCatV1.11B39,2013-04-02 20:22:00,
2013-04-02 16:27:00,65.3,31.4,30.04,SE,143,3.0,3.0,28,0.00,,,0.00,WeatherCatV1.11B39,2013-04-02 20:27:00,
2013-04-02 16:32:00,65.3,31.4,30.03,South,188,2.0,2.0,28,0.00,,,0.00,WeatherCatV1.11B39,2013-04-02 20:32:00,
2013-04-02 16:37:00,65.3,31.4,30.03,SE,130,2.0,2.0,28,0.00,,,0.00,WeatherCatV1.11B39,2013-04-02 20:37:00,
2013-04-02 16:42:00,66.0,32.0,30.03,WSW,241,0.0,0.0,28,0.00,,,0.00,WeatherCatV1.11B39,2013-04-02 20:42:00,
2013-04-02 16:47:00,66.0,32.0,30.03,WSW,241,0.0,0.0,28,0.00,,,0.00,WeatherCatV1.11B39,2013-04-02 20:47:00,
2013-04-02 16:52:00,66.0,32.0,30.03,SW,232,1.0,1.0,28,0.00,,,0.00,WeatherCatV1.11B39,2013-04-02 20:52:00,
2013-04-02 16:57:00,66.0,32.0,30.03,NW,315,5.0,5.0,28,0.00,,,0.00,WeatherCatV1.11B39,2013-04-02 20:57:00,
2013-04-02 17:02:00,66.0,32.0,30.03,NW,315,5.0,5.0,28,0.00,,,0.00,WeatherCatV1.11B39,2013-04-02 21:02:00,
2013-04-02 17:07:00,66.0,32.0,30.03,SSE,161,1.0,5.0,28,0.00,,,0.00,WeatherCatV1.11B39,2013-04-02 21:07:00,
2013-04-02 17:12:00,66.0,32.0,30.03,NW,323,1.0,1.0,28,0.00,,,0.00,WeatherCatV1.11B39,2013-04-02 21:12:00,
2013-04-02 17:17:00,66.0,32.0,30.03,NNW,330,1.0,1.0,28,0.00,,,0.00,WeatherCatV1.11B39,2013-04-02 21:17:00,
2013-04-02 17:22:00,66.0,32.0,30.03,East,90,0.0,5.0,28,0.00,,,0.00,WeatherCatV1.11B39,2013-04-02 21:22:00,
2013-04-02 17:27:00,65.3,31.4,30.03,SW,236,1.0,1.0,28,0.00,,,0.00,WeatherCatV1.11B39,2013-04-02 21:27:00,
2013-04-02 17:32:00,65.3,31.4,30.03,NNE,18,0.0,0.0,28,0.00,,,0.00,WeatherCatV1.11B39,2013-04-02 21:32:00,
2013-04-02 17:37:00,64.8,30.9,30.03,NW,313,2.0,2.0,28,0.00,,,0.00,WeatherCatV1.11B39,2013-04-02 21:37:00,
2013-04-02 17:42:00,64.8,30.9,30.03,NW,313,2.0,2.0,28,0.00,,,0.00,WeatherCatV1.11B39,2013-04-02 21:42:00,
2013-04-02 17:47:00,64.8,30.9,30.03,NW,313,2.0,2.0,28,0.00,,,0.00,WeatherCatV1.11B39,2013-04-02 21:47:00,
2013-04-02 17:52:00,64.7,30.8,30.03,North,0,1.0,4.0,28,0.00,,,0.00,WeatherCatV1.11B39,2013-04-02 21:52:00,
2013-04-02 17:57:00,64.7,30.8,30.03,North,7,0.0,1.0,28,0.00,,,0.00,WeatherCatV1.11B39,2013-04-02 21:57:00,
2013-04-02 18:02:00,64.7,30.8,30.03,WSW,241,2.0,3.0,28,0.00,,,0.00,WeatherCatV1.11B39,2013-04-02 22:02:00,
2013-04-02 18:07:00,64.7,30.8,30.03,NW,309,3.0,3.0,28,0.00,,,0.00,WeatherCatV1.11B39,2013-04-02 22:07:00,
2013-04-02 18:12:00,63.4,29.7,30.03,South,189,0.0,1.0,28,0.00,,,0.00,WeatherCatV1.11B39,2013-04-02 22:12:00,
2013-04-02 18:17:00,62.9,29.3,30.04,WNW,301,0.0,1.0,28,0.00,,,0.00,WeatherCatV1.11B39,2013-04-02 22:17:00,
2013-04-02 18:22:00,62.9,29.3,30.04,WNW,301,0.0,0.0,28,0.00,,,0.00,WeatherCatV1.11B39,2013-04-02 22:22:00,
2013-04-02 18:27:00,62.9,29.3,30.04,SW,223,0.0,0.0,28,0.00,,,0.00,WeatherCatV1.11B39,2013-04-02 22:27:00,
2013-04-02 18:32:00,62.9,29.3,30.04,North,0,0.0,0.0,28,0.00,,,0.00,WeatherCatV1.11B39,2013-04-02 22:32:00,
2013-04-02 18:37:00,62.6,29.0,30.04,North,353,0.0,0.0,28,0.00,,,0.00,WeatherCatV1.11B39,2013-04-02 22:37:00,
2013-04-02 18:42:00,62.6,29.0,30.04,West,272,1.0,1.0,28,0.00,,,0.00,WeatherCatV1.11B39,2013-04-02 22:42:00,
2013-04-02 18:47:00,62.0,28.5,30.05,East,83,1.0,1.0,28,0.00,,,0.00,WeatherCatV1.11B39,2013-04-02 22:47:00,
2013-04-02 18:52:00,62.0,28.5,30.05,East,83,1.0,1.0,28,0.00,,,0.00,WeatherCatV1.11B39,2013-04-02 22:52:00,
2013-04-02 18:57:00,62.0,28.5,30.05,East,83,1.0,1.0,28,0.00,,,0.00,WeatherCatV1.11B39,2013-04-02 22:57:00,
2013-04-02 19:02:00,62.0,28.5,30.06,North,-999,-999.0,0.0,28,0.00,,,0.00,WeatherCatV1.11B39,2013-04-02 23:02:00,
2013-04-02 19:07:00,62.0,28.5,30.06,North,-999,-999.0,0.0,28,0.00,,,0.00,WeatherCatV1.11B39,2013-04-02 23:07:00,
2013-04-02 19:12:00,62.0,28.5,30.06,North,-999,-999.0,0.0,28,0.00,,,0.00,WeatherCatV1.11B39,2013-04-02 23:12:00,
2013-04-02 19:17:00,62.0,28.5,30.07,ENE,75,1.0,1.0,28,0.00,,,0.00,WeatherCatV1.11B39,2013-04-02 23:17:00,
2013-04-02 19:21:00,62.0,28.5,30.07,ENE,75,1.0,1.0,28,0.00,,,0.00,WeatherCatV1.11B39,2013-04-02 23:21:00,
2013-04-02 19:27:00,62.0,28.5,30.07,ENE,75,1.0,1.0,28,0.00,,,0.00,WeatherCatV1.11B39,2013-04-02 23:27:00,
2013-04-02 19:32:00,62.0,28.5,30.07,SSE,165,2.0,2.0,28,0.00,,,0.00,WeatherCatV1.11B39,2013-04-02 23:32:00,
2013-04-02 19:37:00,62.0,28.5,30.07,NW,311,0.0,0.0,28,0.00,,,0.00,WeatherCatV1.11B39,2013-04-02 23:37:00,
2013-04-02 19:42:00,62.0,28.5,30.07,NNW,346,0.0,0.0,28,0.00,,,0.00,WeatherCatV1.11B39,2013-04-02 23:42:00,
2013-04-02 19:47:00,62.0,29.4,30.07,West,272,0.0,0.0,29,0.00,,,0.00,WeatherCatV1.11B39,2013-04-02 23:47:00,
2013-04-02 19:52:00,62.0,29.4,30.07,WNW,287,0.0,0.0,29,0.00,,,0.00,WeatherCatV1.11B39,2013-04-02 23:52:00,
2013-04-02 19:57:00,62.0,29.4,30.07,NNW,328,0.0,1.0,29,0.00,,,0.00,WeatherCatV1.11B39,2013-04-02 23:57:00,
2013-04-02 20:02:00,62.0,29.4,30.07,NNE,18,0.0,1.0,29,0.00,,,0.00,WeatherCatV1.11B39,2013-04-03 00:02:00,
2013-04-02 20:07:00,62.0,29.4,30.07,WNW,292,0.0,0.0,29,0.00,,,0.00,WeatherCatV1.11B39,2013-04-03 00:07:00,
2013-04-02 20:12:00,62.0,32.6,30.07,WNW,294,1.0,2.0,33,0.00,,,0.00,WeatherCatV1.11B39,2013-04-03 00:12:00,
2013-04-02 20:17:00,62.0,32.6,30.08,WNW,291,0.0,0.0,33,0.00,,,0.00,WeatherCatV1.11B39,2013-04-03 00:17:00,
2013-04-02 20:22:00,62.0,33.3,30.08,WNW,291,0.0,0.0,34,0.00,,,0.00,WeatherCatV1.11B39,2013-04-03 00:22:00,
2013-04-02 20:27:00,62.0,34.0,30.08,NW,322,0.0,0.0,35,0.00,,,0.00,WeatherCatV1.11B39,2013-04-03 00:27:00,
2013-04-02 20:32:00,62.0,33.3,30.08,North,349,0.0,1.0,34,0.00,,,0.00,WeatherCatV1.11B39,2013-04-03 00:32:00,
2013-04-02 20:37:00,62.0,33.3,30.08,NW,316,0.0,0.0,34,0.00,,,0.00,WeatherCatV1.11B39,2013-04-03 00:37:00,
2013-04-02 20:42:00,62.0,34.7,30.08,WNW,302,0.0,2.0,36,0.00,,,0.00,WeatherCatV1.11B39,2013-04-03 00:42:00,
2013-04-02 20:47:00,62.0,34.7,30.08,WNW,302,0.0,0.0,36,0.00,,,0.00,WeatherCatV1.11B39,2013-04-03 00:47:00,
2013-04-02 20:52:00,62.0,34.7,30.08,WNW,302,0.0,0.0,36,0.00,,,0.00,WeatherCatV1.11B39,2013-04-03 00:52:00,
2013-04-02 20:57:00,62.0,34.7,30.08,WNW,302,0.0,0.0,36,0.00,,,0.00,WeatherCatV1.11B39,2013-04-03 00:57:00,
2013-04-02 21:02:00,54.7,28.3,30.09,NE,44,0.0,0.0,36,0.00,,,0.00,WeatherCatV1.11B39,2013-04-03 01:02:00,
2013-04-02 21:07:00,54.7,28.3,30.09,NE,44,0.0,0.0,36,0.00,,,0.00,WeatherCatV1.11B39,2013-04-03 01:07:00,
2013-04-02 21:12:00,54.4,28.0,30.09,ESE,107,0.0,0.0,36,0.00,,,0.00,WeatherCatV1.11B39,2013-04-03 01:12:00,
2013-04-02 21:17:00,54.2,27.8,30.10,ESE,107,0.0,0.0,36,0.00,,,0.00,WeatherCatV1.11B39,2013-04-03 01:17:00,
2013-04-02 21:22:00,53.8,27.5,30.10,ESE,107,0.0,0.0,36,0.00,,,0.00,WeatherCatV1.11B39,2013-04-03 01:22:00,
2013-04-02 21:27:00,53.6,27.3,30.10,ESE,107,0.0,0.0,36,0.00,,,0.00,WeatherCatV1.11B39,2013-04-03 01:27:00,
2013-04-02 21:32:00,53.5,27.2,30.10,ESE,107,0.0,0.0,36,0.00,,,0.00,WeatherCatV1.11B39,2013-04-03 01:32:00,
2013-04-02 21:37:00,53.3,27.0,30.10,ESE,107,0.0,0.0,36,0.00,,,0.00,WeatherCatV1.11B39,2013-04-03 01:37:00,
2013-04-02 21:42:00,53.2,26.9,30.10,ESE,107,0.0,0.0,36,0.00,,,0.00,WeatherCatV1.11B39,2013-04-03 01:42:00,
2013-04-02 21:47:00,52.9,26.7,30.11,ESE,107,0.0,0.0,36,0.00,,,0.00,WeatherCatV1.11B39,2013-04-03 01:47:00,
2013-04-02 21:52:00,52.9,26.7,30.11,ESE,107,0.0,0.0,36,0.00,,,0.00,WeatherCatV1.11B39,2013-04-03 01:52:00,
2013-04-02 21:57:00,52.8,26.6,30.11,ESE,107,0.0,0.0,36,0.00,,,0.00,WeatherCatV1.11B39,2013-04-03 01:57:00,
2013-04-02 22:02:00,52.5,26.3,30.11,ESE,107,0.0,0.0,36,0.00,,,0.00,WeatherCatV1.11B39,2013-04-03 02:02:00,
2013-04-02 22:07:00,52.3,26.1,30.11,ESE,107,0.0,0.0,36,0.00,,,0.00,WeatherCatV1.11B39,2013-04-03 02:07:00,
2013-04-02 22:13:00,52.0,25.9,30.11,ESE,107,0.0,0.0,36,0.00,,,0.00,WeatherCatV1.15B25,2013-04-03 02:13:00,
2013-04-02 22:18:00,51.9,25.8,30.11,ESE,107,0.0,0.0,36,0.00,,,0.00,WeatherCatV1.15B25,2013-04-03 02:18:00,
2013-04-02 22:23:00,51.6,25.5,30.11,ESE,107,0.0,0.0,36,0.00,,,0.00,WeatherCatV1.15B25,2013-04-03 02:23:00,
2013-04-02 22:28:00,51.4,25.4,30.11,ESE,107,0.0,0.0,36,0.00,,,0.00,WeatherCatV1.15B25,2013-04-03 02:28:00,
2013-04-02 22:33:00,51.3,25.3,30.11,ESE,107,0.0,0.0,36,0.00,,,0.00,WeatherCatV1.15B25,2013-04-03 02:33:00,
2013-04-02 22:38:00,51.3,25.3,30.11,ESE,107,0.0,0.0,36,0.00,,,0.00,WeatherCatV1.15B25,2013-04-03 02:38:00,
2013-04-02 22:43:00,51.1,25.1,30.11,ESE,107,0.0,0.0,36,0.00,,,0.00,WeatherCatV1.15B25,2013-04-03 02:43:00,
2013-04-02 22:48:00,51.1,25.1,30.12,ESE,107,0.0,0.0,36,0.00,,,0.00,WeatherCatV1.15B25,2013-04-03 02:48:00,
2013-04-02 22:53:00,51.1,25.1,30.12,ESE,107,0.0,0.0,36,0.00,,,0.00,WeatherCatV1.15B25,2013-04-03 02:53:00,
2013-04-02 22:58:00,51.1,25.1,30.12,ESE,107,0.0,0.0,36,0.00,,,0.00,WeatherCatV1.15B25,2013-04-03 02:58:00,
2013-04-02 23:03:00,51.1,25.1,30.12,ESE,107,0.0,0.0,36,0.00,,,0.00,WeatherCatV1.15B25,2013-04-03 03:03:00,
2013-04-02 23:08:00,51.4,25.4,30.12,ESE,107,0.0,0.0,36,0.00,,,0.00,WeatherCatV1.15B25,2013-04-03 03:08:00,
2013-04-02 23:13:00,51.4,25.4,30.12,ESE,107,0.0,0.0,36,0.00,,,0.00,WeatherCatV1.15B25,2013-04-03 03:13:00,
2013-04-02 23:18:00,51.4,26.0,30.13,ESE,107,0.0,0.0,37,0.00,,,0.00,WeatherCatV1.15B25,2013-04-03 03:18:00,
2013-04-02 23:23:00,51.3,29.0,30.13,ESE,107,0.0,0.0,42,0.00,,,0.00,WeatherCatV1.15B25,2013-04-03 03:23:00,
2013-04-02 23:28:00,51.0,27.5,30.13,ESE,107,0.0,0.0,40,0.00,,,0.00,WeatherCatV1.15B25,2013-04-03 03:28:00,
2013-04-02 23:33:00,50.8,26.7,30.13,ESE,107,0.0,0.0,39,0.00,,,0.00,WeatherCatV1.15B25,2013-04-03 03:33:00,
2013-04-02 23:38:00,50.5,26.5,30.13,ESE,107,0.0,0.0,39,0.00,,,0.00,WeatherCatV1.15B25,2013-04-03 03:38:00,
2013-04-02 23:43:00,50.5,26.5,30.13,ESE,107,0.0,0.0,39,0.00,,,0.00,WeatherCatV1.15B25,2013-04-03 03:43:00,
2013-04-02 23:48:00,50.5,30.5,30.12,ESE,107,0.0,0.0,46,0.00,,,0.00,WeatherCatV1.15B25,2013-04-03 03:48:00,
2013-04-02 23:53:00,50.7,30.1,30.12,ESE,107,0.0,0.0,45,0.00,,,0.00,WeatherCatV1.15B25,2013-04-03 03:53:00,
2013-04-02 23:58:00,50.5,27.1,30.12,ESE,107,0.0,0.0,40,0.00,,,0.00,WeatherCatV1.15B25,2013-04-03 03:58:00,